Regional Weather Roundup
Issued by NWS

Home | Current Version | Previous Version | Text Only | Print | Product List | Glossary On
Versions: 1 2 3 4 5 6 7 8 9 10 11 12 13 14 15 16 17 18 19 20 21 22 23 24 25 26 27 28 29 30 31 32 33 34 35 36 37 38 39 40 41 42 43 44 45 46 47 48 49 50
935
ASUS43 KLSX 080010
RWRMO

WEATHER SUMMARY FOR MISSOURI
NATIONAL WEATHER SERVICE SPRINGFIELD MO
600 PM CST SUN FEB 07 2016

NOTE: "FAIR" INDICATES FEW OR NO CLOUDS BELOW 12,000 FEET WITH NO
       SIGNIFICANT WEATHER AND/OR OBSTRUCTIONS TO VISIBILITY.
       CURRENT SKY AND/OR WEATHER CONDITIONS ARE NOT AVAILABLE FOR
       CHILLICOTHE AND FARMINGTON.

MOZ001>031-035>038-043-044-053-054-080100-
...NORTHERN AND WESTERN MISSOURI...

CITY           SKY/WX    TMP DP  RH WIND       PRES   REMARKS
KANSAS CTY INT CLOUDY    45  20  36 NW23G35   29.99S
6HR MIN TEMP:  45; 6HR MAX TEMP:  52;

KANSAS C DTWN  CLOUDY    48  17  29 NW22G30   29.99S
6HR MIN TEMP:  48; 6HR MAX TEMP:  54;

LEE`S SUMMIT   CLOUDY    47  16  29 NW29G40   30.00R
6HR MIN TEMP:  47; 6HR MAX TEMP:  52;

ST JOSEPH      CLOUDY    41  24  51 NW35G43   30.00R
6HR MIN TEMP:  41; 6HR MAX TEMP:  51; 6HR PCP: TRACE;

CHILLICOTHE      N/A     45  25  45 W18G35    29.96R
6HR MIN TEMP:  45; 6HR MAX TEMP:  53;

KIRKSVILLE     MOCLDY    41  21  44 W7        29.89F
6HR MIN TEMP:  41; 6HR MAX TEMP:  51; 6HR PCP: TRACE;


$$
MOZ066>068-077>081-088>096-101>105-080100-
...SOUTHWEST MISSOURI...

CITY           SKY/WX    TMP DP  RH WIND       PRES   REMARKS
SPRINGFIELD    CLOUDY    48  19  31 NW10G18   30.00F
6HR MIN TEMP:  47; 6HR MAX TEMP:  51;

JOPLIN         PTCLDY    47  22  37 NW9       30.05S
6HR MIN TEMP:  46; 6HR MAX TEMP:  56;


$$
MOZ032>034-039>042-045>050-055>058-069>072-080100-
...CENTRAL MISSOURI...

CITY           SKY/WX    TMP DP  RH WIND       PRES   REMARKS
COLUMBIA       CLOUDY    47  24  40 W17G29    29.94R
6HR MIN TEMP:  46; 6HR MAX TEMP:  53;

JEFFERSON CITY CLOUDY    48  23  37 W16G22    29.95R
6HR MIN TEMP:  48; 6HR MAX TEMP:  53;

ROLLA          CLOUDY    46  26  45 W9        29.94S
6HR MIN TEMP:  45; 6HR MAX TEMP:  52; 6HR PCP: TRACE;

SEDALIA        MOCLDY    46  20  35 W18G35    29.97F
6HR MIN TEMP:  46; 6HR MAX TEMP:  53;

WHITEMAN AFB   MOCLDY    46  19  34 NW22G28   29.97S
WARRENSBURG    PTCLDY    43  19  39 W12G17    29.98F
OSAGE BEACH    CLOUDY    48  19  32 W7        29.97S

$$
MOZ051-052-059>065-080100-
...EAST CENTRAL MISSOURI...

CITY           SKY/WX    TMP DP  RH WIND       PRES   REMARKS
ST LOUIS INTL  CLOUDY    50  29  44 W8        29.90S
6HR MIN TEMP:  50; 6HR MAX TEMP:  55;

SPIRIT OF STL  CLOUDY    49  29  46 W9G18     29.89S
6HR MIN TEMP:  49; 6HR MAX TEMP:  54;

ST CHARLES     CLOUDY    48  30  49 W8        29.89R
6HR MIN TEMP:  48; 6HR MAX TEMP:  51;


$$
MOZ072>076-082>087-097>100-106>115-080100-
...SOUTH CENTRAL AND SOUTHEAST MISSOURI...

CITY           SKY/WX    TMP DP  RH WIND       PRES   REMARKS
CAPE GIRARDEAU MOCLDY    46  30  53 W8        29.91S
6HR MIN TEMP:  46; 6HR MAX TEMP:  58;

FARMINGTON     PTCLDY    48  27  44 W5        29.92S
6HR MIN TEMP:  48; 6HR MAX TEMP:  55;

POPLAR BLUFF   PTCLDY    54  26  34 W10       29.93R
6HR MIN TEMP:  53; 6HR MAX TEMP:  59;

WEST PLAINS    CLOUDY    49  23  36 W14       29.99R
6HR MIN TEMP:  49; 6HR MAX TEMP:  55;


$$




USA.gov is the U.S. government's official web portal to all federal, state and local government web resources and services.